Regional Weather Roundup
Issued by NWS

Home | Current Version | Previous Version | Text Only | Print | Product List | Glossary Off
Versions: 1 2 3 4 5 6 7 8 9 10 11 12 13 14 15 16 17 18 19 20 21 22 23 24 25 26 27 28 29 30 31 32 33 34 35 36 37 38 39 40 41 42 43 44 45 46 47 48 49 50

000
ASUS43 KMKX 300210
RWRWI

WISCONSIN REGIONAL WEATHER ROUNDUP
NATIONAL WEATHER SERVICE MILWAUKEE/SULLIVAN WI
900 PM CDT SUN MAR 29 2015

NOTE: "FAIR" INDICATES FEW OR NO CLOUDS BELOW 12,000 FEET WITH NO
SIGNIFICANT WEATHER AND/OR OBSTRUCTIONS TO VISIBILITY.

WIZ001-002-006>008-014>016-023>028-300300-
NORTHWEST WISCONSIN

CITY           SKY/WX    TMP DP  RH WIND       PRES   REMARKS
SUPERIOR ARPT  CLEAR     42  26  53 NW8       29.84R
ASHLAND        PTCLDY    38  28  67 W5        29.81R WCI  34
HAYWARD        MOCLDY    37  28  70 CALM      29.82R
SIREN          PTCLDY    42  25  50 NW9       29.87R
CUMBERLAND     CLEAR     41  27  56 NW9       29.85R
RICE LAKE      CLEAR     42  27  55 W10       29.86R
CHETEK         CLEAR     41  28  58 W7        29.85R
LADYSMITH      CLEAR     38  29  69 W8        29.83R WCI  33
EAU CLAIRE     CLEAR     43  25  49 W9        29.86R
MENOMONIE      CLEAR     46  26  45 W12G21    29.87R
NEW RICHMOND   CLEAR     43  26  52 NW9G17    29.90R
OSCEOLA        CLEAR     43  27  53 W7        29.93R
$$

WIZ003>005-009-010-017-018-300300-
NORTH CENTRAL WISCONSIN

CITY           SKY/WX    TMP DP  RH WIND       PRES   REMARKS
MANITOWISH WTR MOCLDY    35  31  87 NW15      29.75R WCI  25
ARBOR VITAE    CLOUDY    37  31  82 NW15G23   29.75R WCI  27
WOODRUFF       CLOUDY    37  31  82 NW15G23   29.75R WCI  27
RHINELANDER    CLOUDY    36  31  82 NW13G24   29.75R WCI  27
EAGLE RIVER    CLOUDY    35  30  83 NW14G21   29.72R WCI  25
LAND O LAKES   CLOUDY    36  32  85 NW12G21   29.72R WCI  28
PHILLIPS       PTCLDY    36  30  80 NW3       29.79R
TOMAHAWK       CLOUDY    37  31  80 NW10      29.78R WCI  29
MEDFORD        CLEAR     36  31  83 W7        29.80R WCI  30
MERRILL        CLOUDY    38  32  79 NW12G17   29.78R WCI  30
$$

WIZ029-030-035-036-043>047-300300-
CENTRAL WISCONSIN

CITY           SKY/WX    TMP DP  RH WIND       PRES   REMARKS
WAUSAU         CLOUDY    38  31  76 W10       29.77R WCI  31
MOSINEE        CLOUDY    36  32  87 NW6       29.80R WCI  31
MARSHFIELD     PTCLDY    37  31  78 W7        29.81R WCI  32
STEVENS POINT  MOCLDY    37  30  75 NW8       29.81R WCI  31
WAUPACA        MOCLDY    42  31  63 W9G20     29.79R
WAUTOMA        CLEAR     40  32  73 NW7       29.82R
WISC RAPIDS    FAIR      38  30  73 W3        29.83R
CAMP DOUGLAS   CLEAR     30  30 100 CALM      29.83R
$$

WIZ011>013-019>022-031-037>040-048>050-300300-
NORTHEAST WISCONSIN

CITY           SKY/WX    TMP DP  RH WIND       PRES   REMARKS
ANTIGO         CLOUDY    35  32  89 NW18G24   29.74R WCI  24
SHAWANO        CLOUDY    40  34  79 W8G16     29.75R WCI  35
OCONTO         CLOUDY    40  32  75 W13G20    29.71R WCI  32
STURGEON BAY   CLOUDY    37  30  75 W15G22    29.70R WCI  28
GREEN BAY      CLOUDY    39  34  82 W15       29.74R WCI  31
MANITOWOC      CLOUDY    40  35  83 NW21G29   29.74R WCI  30
APPLETON       CLOUDY    39  30  70 NW17G28   29.77R WCI  30
CLINTONVILLE   CLOUDY    39  32  75 NW12      29.77R WCI  32
OSHKOSH        CLOUDY    41  30  65 NW16G28   29.78R
$$

WIZ032>034-041-042-053>061-300300-
SOUTHWEST WISCONSIN

CITY           SKY/WX    TMP DP  RH WIND       PRES   REMARKS
LA CROSSE      CLEAR     48  28  46 W10       29.87R
SPARTA         CLEAR     43  31  61 W8        29.86R
VIROQUA        CLEAR     42  30  62 W12       29.86R
BOSCOBEL       CLEAR     47  29  49 W8        29.89R
PRAIRIE DU CHI CLEAR     45  27  50 W13       29.91R
PLATTEVILLE    CLEAR     42  33  70 W13       29.90R
$$

WIZ056-057-062-063-064-067-068-300300-
SOUTH CENTRAL WISCONSIN

CITY           SKY/WX    TMP DP  RH WIND       PRES   REMARKS
REEDSBURG      PTCLDY    37  34  92 CALM      29.84R
BARABOO/DELLS  CLEAR     35  32  89 CALM      29.84R
LONE ROCK      CLEAR     43  31  62 W10       29.86R
MINERAL POINT  CLEAR     41  32  70 W13       29.87R
MADISON        MOCLDY    39  34  82 CALM      29.85R
MIDDLETON      CLOUDY    40  34  80 W3        29.85R
WATERTOWN      PTCLDY    40  34  80 W8        29.84R WCI  35
MONROE         CLEAR     41  34  75 W17       29.86R
JANESVILLE     MOCLDY    43  34  70 W7        29.86R
$$

WIZ051-052-058>065-066-070>072-300300-
SOUTHEAST WISCONSIN

CITY           SKY/WX    TMP DP  RH WIND       PRES   REMARKS
MILWAUKEE      CLOUDY    44  33  65 NW16G26   29.82R
WAUKESHA       CLOUDY    39  34  81 W17G29    29.83R WCI  30
MILWAUKEE/TIMM CLOUDY    41  36  81 W17G28    29.78S
RACINE         CLOUDY    44  34  67 W13G23    29.83R
BURLINGTON     CLOUDY    41  34  77 W9        29.85R
KENOSHA        CLOUDY    44  35  70 W14G25    29.83R
FOND DU LAC    MOCLDY    41  31  67 NW20G26   29.79R
SHEBOYGAN      CLOUDY    41  33  73 W14G23    29.76R
WEST BEND      CLOUDY    39  32  75 W17G25    29.79R WCI  30
JUNEAU         MOCLDY    40  32  75 W7G17     29.84R WCI  35
$$

LSZ147-162-300300-
LAKE SUPERIOR

STATION/POSITION TIME  TEMP    WIND        PRES    WAVE
                       AIR SEA DIR/SP/G            HT/PER
                 (UTC) (F)     (DEG/KT/KT) (MB)    (FT/S)
DEVILS ISLAND    0200   40     280/ 18/ 19 1008.7R
PORT WING        0100   38     290/ 11/ 13 1009.1R
SAXON HARBOR     0100   41     290/  9/ 14 1008.1R
$$

LMZ867-665-643>646-300300-
LAKE MICHIGAN

STATION/POSITION TIME  TEMP    WIND        PRES    WAVE
                       AIR SEA DIR/SP/G            HT/PER
                 (UTC) (F)     (DEG/KT/KT) (MB)    (FT/S)
NORTHPORT PIER   0120   38     280/ 11/ 24 1002.7R
SISTER BAY       0017   35     280/ 15/ 17   N/A
KEWAUNEE LAKESHO 0100   40     290/ 17/ 22 1003.4R
SHEBOYGAN LAKESH 0200   42     290/ 15/ 17 1008.5R
PORT WASHINGTON  0100   43     290/  7/ 25 1008.1R
MILWAUKEE LAKESH 0100   44     300/ 13/ 18   N/A
KENOSHA   LAKESH 0200   45     290/  9/ 18 1010.5R
$$

TC  - TEMPERATURE IN CELSIUS
VSB - VISIBILITY IN STATUTE MILES
WCI - WIND CHILL INDEX
HX  - HEAT INDEX




USA.gov is the U.S. government's official web portal to all federal, state and local government web resources and services.